#timestamp,LO_Frequency,Hit,StdDev 
1561266015.8,286046995.0,N
1561266035.6,286046995.0,N
1561266055.5,286046996.6,N
1561266075.3,286046998.0,N
1561266095.1,286046992.3,N
1561266115.9,286046992.7,N
1561266135.7,286046993.2,N
1561266155.5,286046991.0,N
1561266175.4,286046991.4,N
1561266195.2,286046990.5,N
1561266215.0,286046990.9,N
1561266215.9,286046990.9,N
1561266235.8,286046992.5,N
1561266255.6,286046990.8,N
1561266275.4,286046990.2,N
1561266295.3,286046989.4,N
1561266315.1,286046987.9,N
1561266316.0,286046987.9,N
1561266335.8,286046989.2,N
1561266355.7,286046989.1,N
1561266375.5,286046991.6,N
1561266395.3,286046990.7,N
1561266415.2,286046990.9,N
1561266435.0,286046991.6,N
1561266435.9,286046991.6,N
1561266455.7,286046994.8,N
1561266475.6,286046992.9,N
1561266495.4,286046993.2,N
1561266515.2,286046991.0,Y
1561266535.1,286046996.7,P
1561266536.0,286046996.7,N
1561266555.8,286046998.3,N
1561266575.6,286046998.1,N
1561266595.5,286047000.0,N
1561266615.3,286047000.9,N
1561266635.1,286046998.4,N
1561266655.9,286046998.5,N
1561266675.7,286046999.0,N
1561266695.5,286046999.0,N
1561266715.4,286046998.6,N
1561266735.2,286047000.1,N
1561266755.0,286047002.0,N
1561266756.0,286047002.0,N
1561266775.8,286047003.6,N
1561266795.6,286047002.9,N
1561266815.5,286047005.8,N
1561266835.3,286047001.6,N
1561266855.1,286046999.7,N
1561266875.9,286047001.5,N
1561266895.7,286047002.1,N
1561266915.5,286047001.1,N
1561266935.4,286047000.1,N
1561266955.2,286047002.0,N
1561266975.0,286047005.9,N
1561266975.9,286047005.9,N
1561266995.8,286047005.7,N
1561267015.6,286047004.5,N
1561267035.4,286047008.9,N
1561267055.3,286047008.0,N
1561267075.1,286047013.1,Y
1561267095.8,286047013.8,P
1561267115.7,286047013.3,N
1561267135.5,286047011.4,N
1561267155.3,286047012.7,N
1561267175.2,286047013.6,N
1561267195.0,286047014.9,Y
1561267195.9,286047014.9,P
1561267215.7,286047004.5,N
1561267235.6,286047007.1,N
1561267255.4,286047008.8,N
1561267275.2,286047004.7,N
1561267295.1,286047005.3,N
1561267296.0,286047005.3,N
1561267315.8,286047005.9,N
1561267335.7,286047005.8,N
1561267355.5,286047005.9,N
1561267375.3,286047005.7,N
1561267395.2,286047007.1,N
1561267415.9,286047004.5,N
1561267435.7,286047007.2,N
1561267455.6,286047007.0,N
1561267475.4,286047006.7,N
1561267495.2,286047006.9,N
1561267515.1,286047006.4,N
1561267516.0,286047006.4,N
1561267535.8,286047008.6,Y
1561267555.6,286047002.4,P
1561267575.5,286047001.3,N
1561267595.3,286047003.8,N
1561267615.1,286047003.2,N
1561267635.9,286047005.5,N
1561267655.7,286047005.4,N
1561267675.5,286047005.3,N
1561267695.4,286047005.1,N
1561267715.2,286047005.1,Y
1561267735.0,286047000.1,P
1561267735.9,286047000.1,N
1561267755.8,286047000.5,N
1561267775.6,286047001.0,N
1561267795.4,286047002.4,N
1561267815.3,286047002.4,N
1561267835.1,286046999.9,N
1561267855.8,286047000.4,N
1561267875.7,286047000.2,N
1561267895.5,286047000.0,N
1561267915.3,286047000.4,N
1561267935.2,286047002.3,N
1561267955.9,286047006.6,Y
1561267975.7,286047005.6,P
1561267995.6,286047002.4,N
1561268015.4,286046997.7,N
1561268035.2,286046995.9,N
1561268055.1,286046993.5,N
1561268056.0,286046993.5,N
1561268075.8,286046994.2,N
1561268095.6,286046996.4,N
1561268115.5,286046993.9,N
1561268135.3,286046993.8,N
1561268155.1,286046995.9,N
1561268175.9,286046996.2,N
1561268195.7,286046997.6,N
1561268215.5,286046996.8,N
1561268235.4,286046998.7,N
1561268255.2,286047001.0,N
1561268275.0,286046996.9,N
1561268275.9,286046996.9,N
1561268295.8,286046997.7,N
1561268315.6,286046999.1,N
1561268335.4,286046998.5,N
1561268355.3,286046996.6,N
1561268375.1,286046996.5,N
1561268395.8,286046999.3,N
1561268415.7,286046999.0,N
1561268435.5,286047000.9,N
1561268455.3,286047000.9,N
1561268475.2,286047000.7,N
1561268495.0,286047000.0,N
1561268495.9,286047000.0,N
1561268515.7,286047001.6,N
1561268535.6,286047001.1,N
1561268555.4,286046999.0,N
1561268575.2,286046997.1,N
1561268595.1,286046999.4,N
1561268596.0,286046999.4,N
1561268615.8,286046999.6,N
1561268635.6,286046999.6,N
1561268655.5,286046999.1,N
1561268675.3,286046998.7,N
1561268695.1,286047000.2,N
1561268715.9,286047001.2,N
1561268735.7,286046997.1,N
1561268755.5,286046995.5,N
1561268775.4,286046993.7,Y
1561268795.2,286046995.6,P
1561268815.0,286046995.1,N
1561268815.9,286046995.1,N
1561268835.8,286046995.2,N
1561268855.6,286046996.2,N
1561268875.4,286046995.4,Y
1561268895.3,286046998.8,P
1561268915.1,286047001.1,N
1561268935.8,286047001.0,N
1561268955.7,286046998.7,N
1561268975.5,286047000.0,N
1561268995.3,286046999.9,N
1561269015.2,286047011.9,Y
1561269035.0,286047001.8,P
1561269035.9,286047001.8,N
1561269055.8,286047003.7,P
1561269075.6,286047002.9,N
1561269095.4,286047003.0,N
1561269115.3,286047005.9,Y
1561269135.1,286047001.3,P
1561269136.0,286047001.3,P
1561269155.8,286047001.7,P
1561269175.7,286046999.7,N
1561269195.5,286047000.2,N
1561269215.3,286047000.0,N
1561269235.2,286047002.8,Y
1561269255.9,286046999.8,P
1561269275.7,286046999.7,N
1561269295.6,286047000.3,N
1561269315.4,286047000.0,N
1561269335.2,286047004.4,Y
1561269355.1,286047001.8,P
1561269356.0,286047001.8,N
1561269375.8,286047002.3,N
1561269395.6,286046999.8,N
1561269415.5,286047001.5,N
1561269435.3,286047004.3,Y
1561269455.1,286047004.2,P
1561269475.9,286047002.9,N
1561269495.7,286047003.3,N
1561269515.5,286047003.4,Y
1561269535.4,286047000.6,P
1561269555.2,286047000.5,N
1561269575.0,286046999.9,N
1561269575.9,286046999.9,N
1561269595.8,286047000.9,N
